Time,TemperatureF,DewpointF,PressureIn,WindDirection,WindDirectionDegrees,WindSpeedMPH,WindSpeedGustMPH,Humidity,HourlyPrecipIn,Conditions,Clouds,dailyrainin,SoftwareType,DateUTC
2013-09-08 00:13:00,72.0,67.0,29.70,North,360,0.0,3.0,84,0.00,,,0.00,,2013-09-08 05:13:00,
2013-09-08 00:23:00,71.0,66.0,29.70,NNW,338,0.0,3.0,85,0.00,,,0.00,,2013-09-08 05:23:00,
2013-09-08 00:52:00,71.0,66.0,29.70,NNW,327,1.0,3.0,85,0.00,,,0.00,,2013-09-08 05:52:00,
2013-09-08 01:13:00,71.0,67.0,29.71,NNE,31,0.0,3.0,87,0.00,,,0.00,,2013-09-08 06:13:00,
2013-09-08 01:21:00,71.0,67.0,29.71,North,355,0.0,3.0,88,0.00,,,0.00,,2013-09-08 06:21:00,
2013-09-08 01:42:00,70.0,67.0,29.71,NNE,14,2.0,4.0,89,0.00,,,0.00,,2013-09-08 06:42:00,
2013-09-08 01:53:00,70.0,67.0,29.71,NNE,12,1.0,4.0,89,0.00,,,0.00,,2013-09-08 06:53:00,
2013-09-08 02:12:00,69.0,66.0,29.71,North,360,1.0,3.0,90,0.00,,,0.00,,2013-09-08 07:12:00,
2013-09-08 02:23:00,69.0,66.0,29.72,NNE,17,2.0,4.0,90,0.00,,,0.00,,2013-09-08 07:23:00,
2013-09-08 02:42:00,69.0,66.0,29.71,NNE,17,2.0,4.0,91,0.00,,,0.00,,2013-09-08 07:42:00,
2013-09-08 02:52:00,68.0,65.0,29.71,NNE,25,1.0,4.0,91,0.00,,,0.00,,2013-09-08 07:52:00,
2013-09-08 03:11:00,68.0,65.0,29.71,NNE,16,1.0,3.0,91,0.00,,,0.00,,2013-09-08 08:11:00,
2013-09-08 03:22:00,68.0,65.0,29.70,NNE,15,1.0,4.0,91,0.00,,,0.00,,2013-09-08 08:22:00,
2013-09-08 03:42:00,68.0,65.0,29.70,NNE,19,1.0,4.0,91,0.00,,,0.00,,2013-09-08 08:42:00,
2013-09-08 03:52:00,67.0,64.0,29.70,NNE,18,0.0,1.0,91,0.00,,,0.00,,2013-09-08 08:52:00,
2013-09-08 04:11:00,67.0,65.0,29.70,NNE,18,0.0,0.0,92,0.00,,,0.00,,2013-09-08 09:11:00,
2013-09-08 04:22:00,67.0,65.0,29.70,NNE,18,0.0,2.0,92,0.00,,,0.00,,2013-09-08 09:22:00,
2013-09-08 04:54:00,66.0,64.0,29.70,NNE,18,0.0,0.0,92,0.00,,,0.00,,2013-09-08 09:54:00,
2013-09-08 05:12:00,66.0,64.0,29.69,NNE,18,0.0,1.0,93,0.00,,,0.00,,2013-09-08 10:12:00,
2013-09-08 05:23:00,67.0,65.0,29.69,NNE,18,0.0,2.0,93,0.00,,,0.00,,2013-09-08 10:23:00,
2013-09-08 05:42:00,67.0,65.0,29.69,NNW,344,0.0,3.0,93,0.00,,,0.00,,2013-09-08 10:42:00,
2013-09-08 05:53:00,67.0,65.0,29.69,NW,326,0.0,4.0,93,0.00,,,0.00,,2013-09-08 10:53:00,
2013-09-08 06:12:00,67.0,65.0,29.68,North,11,1.0,3.0,93,0.00,,,0.00,,2013-09-08 11:12:00,
2013-09-08 06:21:00,67.0,65.0,29.68,North,9,2.0,5.0,93,0.00,,,0.00,,2013-09-08 11:21:00,
2013-09-08 06:42:00,67.0,65.0,29.68,North,5,0.0,4.0,93,0.00,,,0.00,,2013-09-08 11:42:00,
2013-09-08 06:52:00,67.0,65.0,29.69,North,5,0.0,1.0,94,0.00,,,0.00,,2013-09-08 11:52:00,
2013-09-08 07:12:00,67.0,65.0,29.69,North,5,0.0,1.0,94,0.00,,,0.00,,2013-09-08 12:12:00,
2013-09-08 07:22:00,67.0,65.0,29.69,North,11,1.0,3.0,94,0.00,,,0.00,,2013-09-08 12:22:00,
2013-09-08 07:42:00,66.0,64.0,29.69,NNW,338,0.0,3.0,94,0.00,,,0.00,,2013-09-08 12:42:00,
2013-09-08 07:52:00,66.0,64.0,29.70,NNW,338,0.0,2.0,94,0.00,,,0.00,,2013-09-08 12:52:00,
2013-09-08 08:12:00,66.0,64.0,29.69,North,355,0.0,3.0,94,0.00,,,0.00,,2013-09-08 13:12:00,
2013-09-08 08:22:00,66.0,64.0,29.69,North,350,0.0,2.0,94,0.00,,,0.00,,2013-09-08 13:22:00,
2013-09-08 08:42:00,66.0,64.0,29.69,North,350,0.0,2.0,94,0.00,,,0.00,,2013-09-08 13:42:00,
2013-09-08 08:52:00,66.0,64.0,29.69,North,350,0.0,0.0,94,0.00,,,0.00,,2013-09-08 13:52:00,
2013-09-08 09:11:00,67.0,65.0,29.69,North,350,0.0,2.0,94,0.00,,,0.00,,2013-09-08 14:11:00,
2013-09-08 09:22:00,66.0,64.0,29.69,North,350,0.0,2.0,94,0.00,,,0.00,,2013-09-08 14:22:00,
2013-09-08 09:42:00,66.0,64.0,29.68,North,350,0.0,1.0,94,0.00,,,0.00,,2013-09-08 14:42:00,
2013-09-08 09:52:00,67.0,65.0,29.68,North,350,0.0,2.0,94,0.00,,,0.00,,2013-09-08 14:52:00,
2013-09-08 10:12:00,67.0,65.0,29.68,North,349,0.0,1.0,94,0.00,,,0.00,,2013-09-08 15:12:00,
2013-09-08 10:23:00,68.0,66.0,29.68,North,349,0.0,0.0,94,0.00,,,0.00,,2013-09-08 15:23:00,
2013-09-08 10:45:00,69.0,67.0,29.68,NNW,348,0.0,1.0,93,0.00,,,0.00,,2013-09-08 15:45:00,
2013-09-08 10:55:00,71.0,68.0,29.68,NNW,348,0.0,1.0,89,0.00,,,0.00,,2013-09-08 15:55:00,
2013-09-08 11:14:00,73.0,67.0,29.68,NNW,338,0.0,1.0,82,0.00,,,0.00,,2013-09-08 16:14:00,
2013-09-08 11:23:00,76.0,69.0,29.68,South,190,0.0,3.0,79,0.00,,,0.00,,2013-09-08 16:23:00,
2013-09-08 11:44:00,79.0,68.0,29.67,NNW,336,0.0,3.0,68,0.00,,,0.00,,2013-09-08 16:44:00,
2013-09-08 11:53:00,82.0,67.0,29.67,NNW,336,0.0,2.0,61,0.00,,,0.00,,2013-09-08 16:53:00,
2013-09-08 12:12:00,83.0,66.0,29.66,NW,322,0.0,2.0,56,0.00,,,0.00,,2013-09-08 17:12:00,
2013-09-08 12:23:00,86.0,67.0,29.65,NW,304,0.0,3.0,53,0.00,,,0.00,,2013-09-08 17:23:00,
2013-09-08 12:43:00,89.0,65.0,29.65,North,355,0.0,5.0,46,0.00,,,0.00,,2013-09-08 17:43:00,
2013-09-08 12:53:00,91.0,67.0,29.65,NW,315,0.0,4.0,45,0.00,,,0.00,,2013-09-08 17:53:00,
2013-09-08 13:13:00,92.0,68.0,29.64,NNW,327,1.0,4.0,45,0.00,,,0.00,,2013-09-08 18:13:00,
2013-09-08 13:22:00,93.0,67.0,29.64,NW,318,3.0,8.0,43,0.00,,,0.00,,2013-09-08 18:22:00,
2013-09-08 13:42:00,93.0,69.0,29.63,SW,234,1.0,7.0,46,0.00,,,0.00,,2013-09-08 18:42:00,
2013-09-08 13:52:00,93.0,68.0,29.63,North,9,4.0,7.0,44,0.00,,,0.00,,2013-09-08 18:52:00,
2013-09-08 14:12:00,93.0,68.0,29.62,NNW,344,1.0,11.0,44,0.00,,,0.00,,2013-09-08 19:12:00,
2013-09-08 14:22:00,94.0,67.0,29.62,NNW,348,4.0,8.0,41,0.00,,,0.00,,2013-09-08 19:22:00,
2013-09-08 14:42:00,95.0,66.0,29.61,NNW,343,1.0,9.0,39,0.00,,,0.00,,2013-09-08 19:42:00,
2013-09-08 14:52:00,96.0,65.0,29.60,NW,314,3.0,7.0,36,0.00,,,0.00,,2013-09-08 19:52:00,
2013-09-08 15:11:00,96.0,63.0,29.60,NW,319,3.0,13.0,34,0.00,,,0.00,,2013-09-08 20:11:00,
2013-09-08 15:22:00,96.0,62.0,29.59,WNW,294,4.0,8.0,33,0.00,,,0.00,,2013-09-08 20:22:00,
2013-09-08 15:42:00,97.0,62.0,29.58,NNW,342,3.0,10.0,32,0.00,,,0.00,,2013-09-08 20:42:00,
2013-09-08 15:53:00,97.0,66.0,29.58,North,350,2.0,11.0,37,0.00,,,0.00,,2013-09-08 20:53:00,
2013-09-08 16:12:00,96.0,65.0,29.57,NNE,20,5.0,14.0,36,0.00,,,0.00,,2013-09-08 21:12:00,
2013-09-08 16:22:00,95.0,64.0,29.57,NW,304,2.0,12.0,36,0.00,,,0.00,,2013-09-08 21:22:00,
2013-09-08 16:43:00,95.0,65.0,29.56,NNW,344,7.0,15.0,38,0.00,,,0.00,,2013-09-08 21:43:00,
2013-09-08 16:54:00,94.0,67.0,29.56,North,5,6.0,12.0,41,0.00,,,0.00,,2013-09-08 21:54:00,
2013-09-08 17:13:00,93.0,66.0,29.55,East,82,6.0,14.0,41,0.00,,,0.00,,2013-09-08 22:13:00,
2013-09-08 17:24:00,93.0,67.0,29.55,North,360,4.0,14.0,43,0.00,,,0.00,,2013-09-08 22:24:00,
2013-09-08 17:43:00,93.0,66.0,29.54,NE,51,5.0,13.0,41,0.00,,,0.00,,2013-09-08 22:43:00,
2013-09-08 17:53:00,92.0,66.0,29.54,North,5,4.0,12.0,43,0.00,,,0.00,,2013-09-08 22:53:00,
2013-09-08 18:12:00,91.0,67.0,29.54,NNW,332,2.0,13.0,45,0.00,,,0.00,,2013-09-08 23:12:00,
2013-09-08 18:22:00,92.0,65.0,29.53,North,5,4.0,12.0,41,0.00,,,0.00,,2013-09-08 23:22:00,
2013-09-08 18:42:00,92.0,66.0,29.53,NE,40,7.0,11.0,42,0.00,,,0.00,,2013-09-08 23:42:00,
2013-09-08 18:52:00,92.0,66.0,29.52,North,11,3.0,9.0,42,0.00,,,0.00,,2013-09-08 23:52:00,
2013-09-08 19:11:00,91.0,65.0,29.52,NE,42,5.0,10.0,43,0.00,,,0.00,,2013-09-09 00:11:00,
2013-09-08 19:22:00,90.0,66.0,29.52,North,355,2.0,8.0,46,0.00,,,0.00,,2013-09-09 00:22:00,
2013-09-08 19:42:00,89.0,65.0,29.52,NNE,28,3.0,5.0,45,0.00,,,0.00,,2013-09-09 00:42:00,
2013-09-08 19:52:00,88.0,65.0,29.52,North,355,1.0,5.0,46,0.00,,,0.00,,2013-09-09 00:52:00,
2013-09-08 20:12:00,87.0,65.0,29.52,NNW,346,0.0,1.0,48,0.00,,,0.00,,2013-09-09 01:12:00,
2013-09-08 21:22:00,82.0,53.0,29.54,NNW,340,0.0,2.0,37,0.00,,,0.00,,2013-09-09 02:22:00,
2013-09-08 21:42:00,84.0,53.0,29.55,NNE,15,0.0,2.0,35,0.00,,,0.00,,2013-09-09 02:42:00,
2013-09-08 21:53:00,84.0,53.0,29.55,NNW,336,0.0,3.0,35,0.00,,,0.00,,2013-09-09 02:53:00,
2013-09-08 22:12:00,83.0,52.0,29.55,ENE,63,0.0,2.0,35,0.00,,,0.00,,2013-09-09 03:12:00,
2013-09-08 22:22:00,83.0,52.0,29.55,NW,321,0.0,3.0,35,0.00,,,0.00,,2013-09-09 03:22:00,
2013-09-08 22:44:00,83.0,52.0,29.55,NW,304,0.0,4.0,35,0.00,,,0.00,,2013-09-09 03:44:00,
2013-09-08 22:55:00,82.0,52.0,29.55,WNW,298,0.0,4.0,36,0.00,,,0.00,,2013-09-09 03:55:00,
2013-09-08 23:14:00,82.0,53.0,29.56,ENE,58,0.0,3.0,37,0.00,,,0.00,,2013-09-09 04:14:00,
2013-09-08 23:24:00,82.0,52.0,29.56,NNW,347,0.0,5.0,36,0.00,,,0.00,,2013-09-09 04:24:00,
2013-09-08 23:43:00,82.0,53.0,29.57,NNE,29,0.0,6.0,37,0.00,,,0.00,,2013-09-09 04:43:00,
2013-09-08 23:54:00,82.0,53.0,29.57,ENE,71,1.0,4.0,37,0.00,,,0.00,,2013-09-09 04:54:00,